Time,TemperatureF,DewpointF,PressureIn,WindDirection,WindDirectionDegrees,WindSpeedMPH,WindSpeedGustMPH,Humidity,HourlyPrecipIn,Conditions,Clouds,dailyrainin,SoftwareType,DateUTC
2013-02-27 00:02:00,30.0,28.0,29.93,NW,310,6.0,-999.0,92,-99.99,,,-99.99,,2013-02-27 06:02:00,
2013-02-27 00:11:00,30.0,28.0,29.93,NNW,340,7.0,-999.0,92,-99.99,,,-99.99,,2013-02-27 06:11:00,
2013-02-27 00:21:00,30.0,28.0,29.93,NNW,330,9.0,-999.0,92,-99.99,,,-99.99,,2013-02-27 06:21:00,
2013-02-27 00:32:00,30.0,28.0,29.93,NNW,330,8.0,-999.0,92,-99.99,,,-99.99,,2013-02-27 06:32:00,
2013-02-27 00:41:00,30.0,28.0,29.93,NNW,330,10.0,-999.0,92,-99.99,,,-99.99,,2013-02-27 06:41:00,
2013-02-27 00:52:00,30.0,28.0,29.94,NNW,330,10.0,-999.0,92,-99.99,,,-99.99,,2013-02-27 06:52:00,
2013-02-27 01:01:00,30.0,28.0,29.94,NNW,330,10.0,-999.0,92,-99.99,,,-99.99,,2013-02-27 07:01:00,
2013-02-27 01:12:00,30.0,28.0,29.93,NNW,330,10.0,-999.0,92,-99.99,,,-99.99,,2013-02-27 07:12:00,
2013-02-27 01:21:00,28.0,27.0,29.93,NNW,330,12.0,-999.0,92,-99.99,,,-99.99,,2013-02-27 07:21:00,
2013-02-27 01:31:00,28.0,27.0,29.93,NNW,330,9.0,-999.0,92,-99.99,,,-99.99,,2013-02-27 07:31:00,
2013-02-27 01:41:00,28.0,27.0,29.94,NNW,330,9.0,-999.0,92,-99.99,,,-99.99,,2013-02-27 07:41:00,
2013-02-27 01:52:00,28.0,27.0,29.94,NW,310,9.0,-999.0,92,-99.99,,,-99.99,,2013-02-27 07:52:00,
2013-02-27 02:01:00,28.0,27.0,29.94,NW,310,9.0,-999.0,92,-99.99,,,-99.99,,2013-02-27 08:01:00,
2013-02-27 02:11:00,28.0,27.0,29.94,NNW,330,10.0,-999.0,92,-99.99,,,-99.99,,2013-02-27 08:11:00,
2013-02-27 02:21:00,28.0,27.0,29.94,NW,320,9.0,-999.0,92,-99.99,,,-99.99,,2013-02-27 08:21:00,
2013-02-27 02:31:00,28.0,27.0,29.94,NW,320,10.0,-999.0,92,-99.99,,,-99.99,,2013-02-27 08:31:00,
2013-02-27 02:41:00,28.0,27.0,29.94,NW,320,10.0,-999.0,92,-99.99,,,-99.99,,2013-02-27 08:41:00,
2013-02-27 02:52:00,28.0,27.0,29.94,NW,320,10.0,-999.0,92,-99.99,,,-99.99,,2013-02-27 08:52:00,
2013-02-27 03:01:00,28.0,27.0,29.94,NW,320,10.0,-999.0,92,-99.99,,,-99.99,,2013-02-27 09:01:00,
2013-02-27 03:11:00,28.0,27.0,29.94,NW,310,8.0,-999.0,92,-99.99,,,-99.99,,2013-02-27 09:11:00,
2013-02-27 03:21:00,28.0,27.0,29.94,NW,310,6.0,-999.0,92,-99.99,,,-99.99,,2013-02-27 09:21:00,
2013-02-27 03:32:00,28.0,27.0,29.95,WNW,300,7.0,-999.0,92,-99.99,,,-99.99,,2013-02-27 09:32:00,
2013-02-27 03:41:00,28.0,27.0,29.94,WNW,300,7.0,-999.0,92,-99.99,,,-99.99,,2013-02-27 09:41:00,
2013-02-27 03:52:00,28.0,27.0,29.94,WNW,290,7.0,-999.0,92,-99.99,,,-99.99,,2013-02-27 09:52:00,
2013-02-27 04:01:00,28.0,27.0,29.94,WNW,290,7.0,-999.0,92,-99.99,,,-99.99,,2013-02-27 10:01:00,
2013-02-27 04:12:00,28.0,25.0,29.94,WNW,290,10.0,-999.0,86,-99.99,,,-99.99,,2013-02-27 10:12:00,
2013-02-27 04:21:00,28.0,25.0,29.95,WNW,300,8.0,-999.0,86,-99.99,,,-99.99,,2013-02-27 10:21:00,
2013-02-27 04:32:00,28.0,25.0,29.95,WNW,290,8.0,-999.0,86,-99.99,,,-99.99,,2013-02-27 10:32:00,
2013-02-27 04:42:00,28.0,27.0,29.95,WNW,300,8.0,-999.0,92,-99.99,,,-99.99,,2013-02-27 10:42:00,
2013-02-27 04:52:00,28.0,27.0,29.95,WNW,300,8.0,-999.0,92,-99.99,,,-99.99,,2013-02-27 10:52:00,
2013-02-27 05:12:00,28.0,27.0,29.95,West,280,12.0,-999.0,92,-99.99,,,-99.99,,2013-02-27 11:12:00,
2013-02-27 05:22:00,28.0,27.0,29.97,WNW,300,13.0,-999.0,92,-99.99,,,-99.99,,2013-02-27 11:22:00,
2013-02-27 05:32:00,28.0,25.0,29.97,WNW,300,13.0,-999.0,86,-99.99,,,-99.99,,2013-02-27 11:32:00,
2013-02-27 05:41:00,28.0,25.0,29.97,NW,310,12.0,-999.0,86,-99.99,,,-99.99,,2013-02-27 11:41:00,
2013-02-27 05:52:00,28.0,25.0,29.98,NW,310,13.0,-999.0,86,-99.99,,,-99.99,,2013-02-27 11:52:00,
2013-02-27 06:02:00,28.0,25.0,29.98,NW,310,13.0,-999.0,86,-99.99,,,-99.99,,2013-02-27 12:02:00,
2013-02-27 06:12:00,28.0,25.0,29.98,WNW,300,10.0,-999.0,86,-99.99,,,-99.99,,2013-02-27 12:12:00,
2013-02-27 06:22:00,28.0,25.0,29.99,NW,310,8.0,-999.0,86,-99.99,,,-99.99,,2013-02-27 12:22:00,
2013-02-27 06:32:00,28.0,25.0,29.99,WNW,300,8.0,-999.0,86,-99.99,,,-99.99,,2013-02-27 12:32:00,
2013-02-27 06:42:00,28.0,25.0,29.99,NW,310,8.0,-999.0,86,-99.99,,,-99.99,,2013-02-27 12:42:00,
2013-02-27 06:52:00,28.0,25.0,29.99,WNW,300,8.0,-999.0,86,-99.99,,,-99.99,,2013-02-27 12:52:00,
2013-02-27 07:02:00,28.0,25.0,29.99,WNW,300,8.0,-999.0,86,-99.99,,,-99.99,,2013-02-27 13:02:00,
2013-02-27 07:11:00,28.0,25.0,30.00,WNW,290,12.0,-999.0,86,-99.99,,,-99.99,,2013-02-27 13:11:00,
2013-02-27 07:22:00,27.0,25.0,30.00,WNW,300,9.0,-999.0,92,-99.99,,,-99.99,,2013-02-27 13:22:00,
2013-02-27 07:32:00,27.0,25.0,30.01,WNW,300,8.0,-999.0,92,-99.99,,,-99.99,,2013-02-27 13:32:00,
2013-02-27 07:42:00,28.0,25.0,30.01,WNW,300,9.0,-999.0,86,-99.99,,,-99.99,,2013-02-27 13:42:00,
2013-02-27 07:52:00,28.0,25.0,30.01,WNW,300,13.0,16.0,86,-99.99,,,-99.99,,2013-02-27 13:52:00,
2013-02-27 08:02:00,28.0,25.0,30.01,WNW,300,13.0,16.0,86,-99.99,,,-99.99,,2013-02-27 14:02:00,
2013-02-27 08:12:00,28.0,23.0,30.01,WNW,290,10.0,-999.0,79,-99.99,,,-99.99,,2013-02-27 14:12:00,
2013-02-27 08:21:00,28.0,23.0,30.02,WNW,300,13.0,18.0,79,-99.99,,,-99.99,,2013-02-27 14:21:00,
2013-02-27 08:32:00,28.0,23.0,30.02,WNW,300,14.0,-999.0,79,-99.99,,,-99.99,,2013-02-27 14:32:00,
2013-02-27 08:42:00,28.0,23.0,30.02,WNW,300,12.0,-999.0,79,-99.99,,,-99.99,,2013-02-27 14:42:00,
2013-02-27 08:52:00,28.0,23.0,30.03,WNW,300,13.0,-999.0,79,-99.99,,,-99.99,,2013-02-27 14:52:00,
2013-02-27 09:02:00,28.0,23.0,30.03,WNW,300,13.0,-999.0,79,-99.99,,,-99.99,,2013-02-27 15:02:00,
2013-02-27 09:12:00,28.0,23.0,30.04,NW,310,10.0,18.0,79,-99.99,,,-99.99,,2013-02-27 15:12:00,
2013-02-27 09:22:00,28.0,23.0,30.04,NNW,330,15.0,-999.0,79,-99.99,,,-99.99,,2013-02-27 15:22:00,
2013-02-27 09:32:00,28.0,23.0,30.04,NW,320,14.0,27.0,79,-99.99,,,-99.99,,2013-02-27 15:32:00,
2013-02-27 09:42:00,28.0,23.0,30.04,NW,320,14.0,27.0,79,-99.99,,,-99.99,,2013-02-27 15:42:00,
2013-02-27 09:52:00,28.0,23.0,30.04,NW,320,10.0,-999.0,79,-99.99,,,-99.99,,2013-02-27 15:52:00,
2013-02-27 10:01:00,28.0,23.0,30.04,NW,320,10.0,-999.0,79,-99.99,,,-99.99,,2013-02-27 16:01:00,
2013-02-27 10:11:00,30.0,23.0,30.05,NW,320,15.0,18.0,74,-99.99,,,-99.99,,2013-02-27 16:11:00,
2013-02-27 10:22:00,30.0,23.0,30.05,NW,320,16.0,22.0,74,-99.99,,,-99.99,,2013-02-27 16:22:00,
2013-02-27 10:32:00,30.0,25.0,30.05,NW,310,16.0,22.0,80,-99.99,,,-99.99,,2013-02-27 16:32:00,
2013-02-27 10:42:00,30.0,23.0,30.05,NW,320,18.0,22.0,74,-99.99,,,-99.99,,2013-02-27 16:42:00,
2013-02-27 10:52:00,30.0,23.0,30.06,NW,320,18.0,24.0,74,-99.99,,,-99.99,,2013-02-27 16:52:00,
2013-02-27 11:01:00,30.0,23.0,30.06,NW,320,18.0,24.0,74,-99.99,,,-99.99,,2013-02-27 17:01:00,
2013-02-27 11:11:00,32.0,23.0,30.07,NW,310,13.0,21.0,69,-99.99,,,-99.99,,2013-02-27 17:11:00,
2013-02-27 11:21:00,32.0,23.0,30.07,NW,320,21.0,-999.0,69,-99.99,,,-99.99,,2013-02-27 17:21:00,
2013-02-27 11:32:00,34.0,23.0,30.07,NW,320,18.0,-999.0,64,-99.99,,,-99.99,,2013-02-27 17:32:00,
2013-02-27 11:41:00,34.0,23.0,30.07,NW,310,17.0,23.0,64,-99.99,,,-99.99,,2013-02-27 17:41:00,
2013-02-27 11:52:00,34.0,23.0,30.08,NW,310,16.0,24.0,64,-99.99,,,-99.99,,2013-02-27 17:52:00,
2013-02-27 12:01:00,34.0,23.0,30.08,NW,310,16.0,24.0,64,-99.99,,,-99.99,,2013-02-27 18:01:00,
2013-02-27 12:11:00,34.0,25.0,30.08,NW,320,15.0,20.0,69,-99.99,,,-99.99,,2013-02-27 18:11:00,
2013-02-27 12:22:00,36.0,23.0,30.08,NW,320,17.0,22.0,59,-99.99,,,-99.99,,2013-02-27 18:22:00,
2013-02-27 12:32:00,36.0,25.0,30.08,WNW,300,14.0,20.0,64,-99.99,,,-99.99,,2013-02-27 18:32:00,
2013-02-27 12:42:00,36.0,25.0,30.07,NW,320,17.0,-999.0,64,-99.99,,,-99.99,,2013-02-27 18:42:00,
2013-02-27 12:52:00,36.0,23.0,30.07,NW,320,14.0,23.0,59,-99.99,,,-99.99,,2013-02-27 18:52:00,
2013-02-27 13:01:00,36.0,23.0,30.07,NW,320,14.0,23.0,59,-99.99,,,-99.99,,2013-02-27 19:01:00,
2013-02-27 13:11:00,37.0,23.0,30.07,NW,310,13.0,18.0,55,-99.99,,,-99.99,,2013-02-27 19:11:00,
2013-02-27 13:21:00,37.0,23.0,30.07,NW,310,16.0,22.0,55,-99.99,,,-99.99,,2013-02-27 19:21:00,
2013-02-27 13:32:00,37.0,25.0,30.07,NW,310,17.0,22.0,60,-99.99,,,-99.99,,2013-02-27 19:32:00,
2013-02-27 13:42:00,37.0,23.0,30.07,NW,320,21.0,25.0,55,-99.99,,,-99.99,,2013-02-27 19:42:00,
2013-02-27 13:52:00,37.0,23.0,30.07,NW,320,18.0,25.0,55,-99.99,,,-99.99,,2013-02-27 19:52:00,
2013-02-27 14:01:00,37.0,23.0,30.07,NW,320,18.0,25.0,55,-99.99,,,-99.99,,2013-02-27 20:01:00,
2013-02-27 14:11:00,39.0,25.0,30.07,NW,320,20.0,25.0,55,-99.99,,,-99.99,,2013-02-27 20:11:00,
2013-02-27 14:21:00,39.0,25.0,30.07,NW,320,16.0,22.0,55,-99.99,,,-99.99,,2013-02-27 20:21:00,
2013-02-27 14:32:00,39.0,25.0,30.07,NW,320,21.0,25.0,55,-99.99,,,-99.99,,2013-02-27 20:32:00,
2013-02-27 14:42:00,39.0,25.0,30.07,NW,310,21.0,25.0,55,-99.99,,,-99.99,,2013-02-27 20:42:00,
2013-02-27 14:52:00,39.0,25.0,30.07,NW,310,18.0,25.0,55,-99.99,,,-99.99,,2013-02-27 20:52:00,
2013-02-27 15:02:00,39.0,25.0,30.07,NW,310,18.0,25.0,55,-99.99,,,-99.99,,2013-02-27 21:02:00,
2013-02-27 15:11:00,39.0,25.0,30.07,NW,320,21.0,28.0,55,-99.99,,,-99.99,,2013-02-27 21:11:00,
2013-02-27 15:21:00,39.0,25.0,30.08,NW,320,17.0,28.0,55,-99.99,,,-99.99,,2013-02-27 21:21:00,
2013-02-27 15:31:00,39.0,25.0,30.08,NW,320,16.0,25.0,55,-99.99,,,-99.99,,2013-02-27 21:31:00,
2013-02-27 15:42:00,39.0,25.0,30.08,NW,310,18.0,23.0,55,-99.99,,,-99.99,,2013-02-27 21:42:00,
2013-02-27 15:52:00,39.0,25.0,30.08,NNW,330,20.0,25.0,55,-99.99,,,-99.99,,2013-02-27 21:52:00,
2013-02-27 16:01:00,39.0,25.0,30.08,NNW,330,20.0,25.0,55,-99.99,,,-99.99,,2013-02-27 22:01:00,
2013-02-27 16:11:00,39.0,25.0,30.08,NNW,330,20.0,25.0,55,-99.99,,,-99.99,,2013-02-27 22:11:00,
2013-02-27 16:21:00,39.0,23.0,30.09,NW,320,18.0,25.0,51,-99.99,,,-99.99,,2013-02-27 22:21:00,
2013-02-27 16:31:00,39.0,25.0,30.09,NW,310,13.0,27.0,55,-99.99,,,-99.99,,2013-02-27 22:31:00,
2013-02-27 16:42:00,39.0,25.0,30.09,NW,310,16.0,28.0,55,-99.99,,,-99.99,,2013-02-27 22:42:00,
2013-02-27 16:52:00,39.0,25.0,30.09,NW,310,16.0,28.0,55,-99.99,,,-99.99,,2013-02-27 22:52:00,
2013-02-27 17:01:00,39.0,25.0,30.09,NW,310,16.0,28.0,55,-99.99,,,-99.99,,2013-02-27 23:01:00,
2013-02-27 17:11:00,39.0,25.0,30.09,NW,310,16.0,28.0,55,-99.99,,,-99.99,,2013-02-27 23:11:00,
2013-02-27 17:21:00,39.0,25.0,30.09,NW,310,18.0,28.0,55,-99.99,,,-99.99,,2013-02-27 23:21:00,
2013-02-27 17:32:00,37.0,25.0,30.10,NW,320,17.0,27.0,60,-99.99,,,-99.99,,2013-02-27 23:32:00,
2013-02-27 17:42:00,37.0,25.0,30.10,NW,320,17.0,27.0,60,-99.99,,,-99.99,,2013-02-27 23:42:00,
2013-02-27 17:53:00,37.0,25.0,30.10,NW,320,15.0,22.0,60,-99.99,,,-99.99,,2013-02-27 23:53:00,
2013-02-27 18:01:00,37.0,25.0,30.10,NW,320,15.0,22.0,60,-99.99,,,-99.99,,2013-02-28 00:01:00,
2013-02-27 18:11:00,37.0,25.0,30.10,NW,320,15.0,22.0,60,-99.99,,,-99.99,,2013-02-28 00:11:00,
2013-02-27 18:21:00,37.0,27.0,30.11,NW,310,12.0,18.0,64,-99.99,,,-99.99,,2013-02-28 00:21:00,
2013-02-27 18:32:00,36.0,27.0,30.12,WNW,300,12.0,16.0,69,-99.99,,,-99.99,,2013-02-28 00:32:00,
2013-02-27 18:42:00,36.0,27.0,30.12,WNW,300,12.0,16.0,69,-99.99,,,-99.99,,2013-02-28 00:42:00,
2013-02-27 18:52:00,36.0,27.0,30.12,WNW,300,13.0,-999.0,69,-99.99,,,-99.99,,2013-02-28 00:52:00,
2013-02-27 19:01:00,36.0,27.0,30.12,WNW,300,13.0,-999.0,69,-99.99,,,-99.99,,2013-02-28 01:01:00,
2013-02-27 19:11:00,36.0,27.0,30.12,WNW,300,13.0,-999.0,69,-99.99,,,-99.99,,2013-02-28 01:11:00,
2013-02-27 19:21:00,36.0,27.0,30.13,WNW,300,12.0,-999.0,69,-99.99,,,-99.99,,2013-02-28 01:21:00,
2013-02-27 19:31:00,36.0,27.0,30.14,WNW,300,12.0,-999.0,69,-99.99,,,-99.99,,2013-02-28 01:31:00,
2013-02-27 19:42:00,36.0,27.0,30.14,WNW,300,12.0,-999.0,69,-99.99,,,-99.99,,2013-02-28 01:42:00,
2013-02-27 19:52:00,36.0,27.0,30.14,WNW,300,15.0,20.0,69,-99.99,,,-99.99,,2013-02-28 01:52:00,
2013-02-27 20:01:00,36.0,27.0,30.14,WNW,300,15.0,20.0,69,-99.99,,,-99.99,,2013-02-28 02:01:00,
2013-02-27 20:11:00,36.0,27.0,30.14,WNW,300,15.0,20.0,69,-99.99,,,-99.99,,2013-02-28 02:11:00,
2013-02-27 20:22:00,34.0,27.0,30.14,WNW,290,12.0,-999.0,74,-99.99,,,-99.99,,2013-02-28 02:22:00,
2013-02-27 20:31:00,34.0,27.0,30.14,WNW,300,12.0,-999.0,74,-99.99,,,-99.99,,2013-02-28 02:31:00,
2013-02-27 20:42:00,34.0,27.0,30.14,WNW,300,12.0,-999.0,74,-99.99,,,-99.99,,2013-02-28 02:42:00,
2013-02-27 20:52:00,34.0,27.0,30.14,WNW,300,12.0,-999.0,74,-99.99,,,-99.99,,2013-02-28 02:52:00,
2013-02-27 21:01:00,34.0,27.0,30.14,WNW,300,12.0,-999.0,74,-99.99,,,-99.99,,2013-02-28 03:01:00,
2013-02-27 21:11:00,34.0,27.0,30.14,WNW,300,12.0,-999.0,74,-99.99,,,-99.99,,2013-02-28 03:11:00,
2013-02-27 21:21:00,34.0,27.0,30.15,WNW,300,12.0,-999.0,74,-99.99,,,-99.99,,2013-02-28 03:21:00,
2013-02-27 21:31:00,34.0,27.0,30.15,WNW,300,12.0,-999.0,74,-99.99,,,-99.99,,2013-02-28 03:31:00,
2013-02-27 21:42:00,34.0,27.0,30.15,WNW,300,12.0,-999.0,74,-99.99,,,-99.99,,2013-02-28 03:42:00,
2013-02-27 21:52:00,34.0,27.0,30.15,WNW,300,12.0,-999.0,74,-99.99,,,-99.99,,2013-02-28 03:52:00,
2013-02-27 22:01:00,34.0,27.0,30.15,WNW,300,12.0,-999.0,74,-99.99,,,-99.99,,2013-02-28 04:01:00,
2013-02-27 22:11:00,34.0,27.0,30.15,WNW,300,12.0,-999.0,74,-99.99,,,-99.99,,2013-02-28 04:11:00,
2013-02-27 22:21:00,32.0,27.0,30.15,WNW,300,8.0,-999.0,80,-99.99,,,-99.99,,2013-02-28 04:21:00,
2013-02-27 22:32:00,30.0,27.0,30.15,WNW,290,9.0,-999.0,86,-99.99,,,-99.99,,2013-02-28 04:32:00,
2013-02-27 22:42:00,30.0,27.0,30.15,WNW,290,9.0,-999.0,86,-99.99,,,-99.99,,2013-02-28 04:42:00,
2013-02-27 22:52:00,30.0,27.0,30.15,WNW,300,9.0,-999.0,86,-99.99,,,-99.99,,2013-02-28 04:52:00,
2013-02-27 23:01:00,30.0,27.0,30.15,WNW,300,9.0,-999.0,86,-99.99,,,-99.99,,2013-02-28 05:01:00,
2013-02-27 23:11:00,30.0,27.0,30.15,WNW,300,9.0,-999.0,86,-99.99,,,-99.99,,2013-02-28 05:11:00,
2013-02-27 23:22:00,30.0,27.0,30.15,WNW,300,9.0,-999.0,86,-99.99,,,-99.99,,2013-02-28 05:22:00,
2013-02-27 23:31:00,30.0,25.0,30.15,WNW,290,9.0,-999.0,80,-99.99,,,-99.99,,2013-02-28 05:31:00,
2013-02-27 23:43:00,30.0,25.0,30.15,WNW,290,9.0,-999.0,80,-99.99,,,-99.99,,2013-02-28 05:43:00,
2013-02-27 23:52:00,30.0,27.0,30.15,West,280,12.0,-999.0,86,-99.99,,,-99.99,,2013-02-28 05:52:00,